Location: Banios
(43.0451°N, 0.2335°E)
Time: 09:28:51
(UTC+00:00)

A-11 Canister half - Pass Details

Date: 03 December 2021
Orbit: 1516 x 1684 km, 47.2° (Epoch: 22 January)

Event Time Altitude Azimuth Distance (km) Brightness Sun altitude
Rises 05:31:07 0° 200° (SSW) 4,717 11.5 -18.0°
Reaches altitude 10° 05:34:32 10° 191° (S) 3,759 11.1 -17.4°
Maximum altitude 05:42:41 33° 132° (SE) 2,470 10.7 -16.0°
Drops below altitude 10° 05:51:03 10° 74° (ENE) 3,887 12.0 -14.5°
Sets 05:54:38 0° 65° (ENE) 4,898 12.4 -13.9°
